Wind_Speed
6 7 7 4 5 5 7 8 6 5 4 5 4 3 5 3 5 9 3 2 4 4 4 11 12 10 11 10 10 9 9 11 10 9 8 7 7 6 7 7 7 7 8 11 13 12 13 12 12 13 13 14 16 16 15 17 18 17 15 14 15 14 15 19 20 17 17 16 17 16 13 11 10 8 8 7 8 10 10 9 10 12 12 11 10 10
8 9 5 5 6 5 6 9 9 6 4 2 4 5 6 4 5 9 1 2 3 3 3 12 13 10 11 9 9 9 9 10 8 8 8 7 7 6 6 7 6 6 7 10 11 11 11 10 10 10 10 11 13 13 13 13 13 14 14 12 12 12 13 17 19 17 16 14 14 15 13 11 10 8 8 8 8 9 9 8 10 13 13 11 10 10
8 7 6 7 7 5 5 11 12 8 1 3 6 4 4 4 5 6 1 4 4 1 0 10 13 8 9 9 8 8 8 8 8 8 7 6 6 5 5 6 5 5 5 7 8 9 9 8 8 8 8 8 8 9 10 10 9 11 13 11 10 11 12 15 18 17 17 14 13 15 14 11 10 8 7 8 8 7 8 9 10 12 12 12 10 9
6 6 9 8 7 4 8 11 13 9 5 5 5 4 4 5 5 4 4 9 7 2 0 9 10 6 7 8 7 7 7 8 8 8 7 6 5 5 5 4 4 5 4 5 6 7 7 6 6 6 6 6 5 5 7 8 8 8 11 11 11 11 12 14 17 18 17 16 15 16 15 12 10 9 7 7 7 6 8 10 11 12 11 11 10 9
7 8 11 7 5 9 8 9 11 8 3 3 6 6 4 6 7 5 7 10 5 2 2 5 6 3 4 5 5 5 6 7 6 6 6 5 5 5 4 3 3 3 4 4 4 5 6 5 5 5 4 4 3 2 4 7 8 8 9 11 11 12 12 14 16 18 18 17 16 16 15 12 10 9 7 7 6 7 9 9 10 12 10 10 9 8
8 10 11 7 8 9 7 8 11 8 3 2 5 8 7 7 7 8 9 8 2 1 3 3 2 1 3 4 4 4 4 5 5 4 4 4 4 4 4 4 3 3 3 4 4 5 6 6 6 4 4 3 2 1 2 5 8 9 10 11 11 12 12 13 15 16 16 16 14 14 13 10 8 8 7 7 8 9 10 9 10 12 10 10 9 8
7 10 10 9 7 8 7 6 9 9 5 3 5 8 8 7 7 8 7 5 2 0 3 5 3 1 1 2 3 4 5 5 4 4 3 3 3 4 4 4 4 4 4 4 5 7 7 7 7 6 5 4 3 1 1 4 7 8 9 9 9 10 10 11 13 14 14 13 12 11 10 7 7 8 8 8 9 9 9 9 10 11 10 9 8 8
6 10 11 10 7 6 6 5 7 8 4 4 7 10 9 8 7 7 6 4 3 0 2 5 4 0 1 2 4 5 5 4 3 3 3 3 3 4 4 4 4 5 5 5 5 8 10 10 9 9 7 5 2 0 1 2 4 6 8 7 7 7 8 9 11 12 12 11 11 10 8 6 7 8 9 9 9 8 9 9 9 10 10 9 8 8
4 8 10 9 7 5 4 5 7 6 4 5 10 11 9 8 6 5 4 5 3 1 1 5 6 2 1 3 4 4 3 3 3 4 4 4 4 4 4 5 5 5 5 6 7 9 12 11 9 9 7 5 3 1 1 2 3 4 5 5 5 5 6 8 10 11 11 11 10 8 6 6 7 8 9 9 9 9 9 8 9 10 9 9 8 8
1 4 5 6 6 4 5 7 6 4 4 8 12 13 9 6 5 4 4 5 3 1 1 5 6 2 2 3 4 2 2 3 3 3 5 5 5 5 5 6 6 5 6 8 10 10 10 9 8 8 8 7 6 4 3 3 2 3 3 3 4 5 6 8 9 10 11 10 9 7 6 7 8 8 9 9 9 9 8 8 8 9 8 9 8 8
3 1 2 5 5 5 8 7 4 3 6 8 9 10 6 2 3 3 4 3 3 1 1 4 5 3 1 2 3 2 3 3 4 4 4 5 6 6 6 6 6 6 6 7 10 10 8 8 9 9 9 9 9 7 5 5 5 5 4 4 5 5 7 8 8 9 10 9 8 7 6 7 8 8 9 9 9 9 8 8 7 8 9 9 9 9
2 1 0 2 5 8 8 5 1 3 5 7 6 6 5 2 1 2 2 2 2 2 2 5 6 4 1 2 3 4 4 5 5 5 5 6 7 7 7 7 7 7 8 7 7 8 9 10 11 12 13 12 12 10 9 8 8 8 6 6 6 6 7 8 9 10 10 9 8 7 7 7 7 8 8 9 9 9 8 8 7 9 9 9 9 9
2 3 1 1 3 9 8 4 5 3 4 7 6 5 5 3 3 3 3 3 2 3 4 6 6 3 4 3 5 7 7 7 7 6 6 6 6 7 7 7 7 7 8 7 6 7 10 12 13 15 16 15 14 14 12 11 10 10 8 7 8 8 8 9 10 10 9 9 9 8 8 8 8 8 8 9 10 9 8 8 8 9 9 10 10 9
0 2 5 3 2 8 8 4 4 4 5 6 5 5 3 2 3 3 2 3 2 4 7 5 3 0 4 3 6 8 8 8 7 7 7 7 7 7 7 7 7 8 8 7 6 7 10 13 15 17 18 17 17 16 14 13 12 11 10 9 8 9 8 9 10 10 9 9 9 9 9 8 8 8 8 9 9 9 9 8 8 9 10 10 10 10
1 1 4 4 2 4 5 4 1 3 4 4 4 3 3 3 1 2 2 3 3 5 8 5 1 2 4 2 6 7 6 6 6 7 7 7 7 7 6 7 8 9 8 7 7 9 12 15 17 18 18 18 18 17 16 15 14 12 11 10 9 9 9 9 10 10 10 10 9 10 10 9 9 9 9 9 9 9 9 9 9 10 10 11 11 11
2 2 0 1 1 3 3 2 4 3 2 2 3 3 3 1 0 2 3 4 4 5 6 3 2 4 2 1 4 4 4 5 6 7 7 8 8 7 7 8 9 9 8 8 8 9 13 17 18 19 19 19 18 17 17 17 16 14 11 11 10 10 10 10 10 10 11 11 10 11 11 10 10 10 10 10 9 10 10 11 11 11 11 11 12 12
1 1 2 1 0 1 0 2 4 3 0 2 3 2 2 2 1 2 5 5 4 4 2 2 4 4 2 1 3 4 5 6 7 8 9 10 9 8 9 9 10 10 9 9 9 10 15 17 19 21 20 19 18 19 19 19 19 16 12 12 12 11 11 11 10 11 12 12 12 12 12 12 11 11 11 10 10 10 11 11 11 11 11 11 12 12
1 1 2 2 2 2 2 1 3 3 1 1 1 3 3 0 2 1 3 3 3 4 2 2 6 6 3 3 2 4 8 9 8 10 10 10 9 9 10 11 11 11 10 10 10 12 16 17 19 20 20 20 21 21 21 21 19 17 14 13 13 13 12 12 12 12 12 12 12 13 12 12 12 11 11 11 11 11 11 11 11 11 12 12 12 13
1 0 2 3 2 3 3 2 1 3 0 4 2 2 1 1 0 1 2 2 3 4 4 3 4 5 4 3 2 6 10 11 10 10 10 10 10 10 11 12 12 11 9 9 8 9 12 15 18 19 20 23 23 23 23 21 19 17 14 13 14 14 13 13 14 13 12 12 13 13 12 12 12 12 11 11 11 11 11 11 11 12 12 13 13 13
1 1 1 3 2 3 2 1 1 2 1 3 2 1 2 2 2 1 1 1 2 4 4 3 3 4 5 5 5 8 11 11 10 9 9 10 10 10 10 10 10 10 9 9 8 7 11 16 18 20 23 25 24 24 24 22 20 18 16 15 15 14 14 14 14 14 13 13 14 14 13 13 13 13 12 12 12 12 12 12 12 13 13 12 12 13
2 1 1 2 1 1 2 2 2 2 1 1 1 0 0 1 1 1 1 1 2 2 3 4 6 6 5 4 6 9 9 9 9 9 9 9 9 10 9 9 9 9 9 9 8 8 13 18 22 25 28 26 23 23 23 22 20 18 16 16 16 15 15 15 16 15 15 14 14 14 15 14 14 14 13 13 13 13 13 13 13 13 13 12 13 13
2 2 2 2 1 1 2 1 3 3 2 1 1 1 2 1 1 1 2 0 1 2 2 4 7 9 7 3 6 7 7 8 9 8 8 9 9 9 9 9 9 8 8 9 9 10 15 20 22 24 24 22 21 21 21 21 20 18 17 17 17 16 16 16 16 16 16 15 15 15 15 15 14 14 14 14 13 14 14 14 13 13 13 13 14 14
2 2 3 3 1 2 2 3 5 4 2 1 2 1 2 1 2 2 3 1 1 2 2 3 6 9 6 4 5 5 7 7 8 8 9 9 9 9 8 8 8 8 9 10 11 13 17 19 18 17 16 18 20 21 20 20 20 19 19 18 17 17 16 16 16 17 16 15 16 16 15 15 15 14 14 14 14 15 15 14 13 13 13 14 15 15
1 1 3 3 1 2 2 2 3 2 2 1 4 4 3 2 2 1 1 1 1 3 3 2 6 8 5 3 3 3 5 6 6 8 10 9 8 9 9 9 9 9 10 10 10 12 15 16 15 14 13 17 20 21 22 22 21 20 19 18 18 18 17 16 16 16 16 16 16 16 16 15 15 15 15 15 15 15 14 14 14 14 14 15 15 15
1 1 2 3 2 1 2 2 2 1 1 2 4 4 4 4 5 3 1 2 0 5 6 4 6 8 4 1 2 4 5 7 8 9 10 10 9 8 8 8 8 9 9 9 10 10 12 13 14 14 14 17 20 21 21 22 21 20 19 18 18 17 16 16 16 16 16 16 16 16 16 16 15 16 16 15 15 15 14 14 14 14 14 14 15 15
1 2 2 2 2 3 3 3 2 2 2 3 3 4 5 6 7 3 1 1 3 6 7 5 8 11 8 4 5 7 8 9 11 11 10 9 8 7 6 5 6 6 7 9 9 9 9 10 12 14 14 14 18 20 20 19 20 19 18 18 18 17 16 16 15 15 16 16 16 16 16 16 15 16 15 15 15 14 14 14 14 14 14 14 14 15
1 3 2 2 4 4 5 6 4 4 5 6 5 4 5 6 8 5 1 3 4 3 5 9 11 15 16 13 10 9 9 10 11 10 10 9 8 6 5 6 7 8 8 9 9 9 9 10 12 14 15 14 15 18 20 19 18 18 17 17 18 17 16 16 15 15 16 16 16 16 16 16 15 15 15 14 14 14 14 14 14 14 14 14 14 15
1 3 1 1 5 7 7 10 10 7 8 10 10 8 6 7 9 8 7 9 4 3 8 13 11 13 18 18 15 14 13 12 12 12 11 9 7 6 6 8 11 10 9 9 10 9 10 10 11 12 14 14 15 16 18 18 17 17 16 17 17 17 16 16 15 16 16 17 17 17 16 15 15 15 14 14 13 14 14 14 14 14 14 15 15 17
0 3 0 1 6 9 9 12 12 9 9 10 11 11 9 7 10 12 14 14 7 5 13 17 15 16 18 19 18 17 15 14 14 12 9 8 8 8 9 10 12 11 10 10 10 10 10 9 8 10 12 13 15 15 15 15 15 15 15 16 17 17 16 16 16 16 17 17 17 17 16 15 14 14 14 13 14 14 14 14 14 14 15 15 16 17
1 2 0 0 7 11 11 12 11 9 9 10 12 13 11 10 11 12 14 14 12 13 18 20 20 21 20 18 18 16 14 12 11 8 7 8 9 9 9 11 12 13 12 12 12 11 11 10 10 11 12 13 13 13 12 13 12 13 14 15 16 16 16 15 16 17 17 18 18 17 16 15 15 15 14 14 15 14 15 15 15 15 16 16 18 19
1 0 0 1 4 9 10 8 6 6 7 11 14 14 12 12 12 13 13 12 11 14 18 18 19 19 17 15 14 13 10 9 10 10 10 10 9 9 11 12 13 14 13 13 12 11 10 10 10 11 12 12 12 13 13 13 12 12 13 14 15 16 16 16 17 17 18 18 18 17 16 16 16 16 16 16 16 15 16 16 16 17 18 18 19 20
1 1 1 1 2 6 5 3 4 6 8 12 16 16 14 12 10 10 10 8 9 12 14 14 13 13 13 12 13 13 12 11 12 13 12 11 10 11 12 13 15 14 13 13 12 11 11 10 10 11 12 12 13 14 13 11 11 12 13 14 15 16 16 17 18 18 18 18 17 17 17 16 16 16 16 16 16 16 16 17 18 18 19 19 20 20
1 0 1 1 2 5 4 4 6 7 8 9 9 8 9 9 8 8 7 8 10 10 9 10 11 13 14 13 15 16 15 14 12 11 11 12 12 12 13 15 16 14 12 12 12 11 11 11 12 13 14 14 15 14 12 10 10 12 14 14 15 15 16 17 18 18 18 18 17 17 17 17 17 16 17 17 17 17 17 18 18 18 19 19 20 20
2 1 1 1 1 5 7 7 7 5 4 5 4 4 5 6 6 7 7 8 10 9 8 11 14 15 16 15 16 18 17 15 13 12 12 12 11 12 13 14 13 12 11 11 11 11 12 14 17 17 16 17 16 14 12 11 13 14 15 15 15 15 16 18 18 18 18 18 18 18 17 17 17 17 17 17 17 17 18 18 19 19 19 20 19 20
3 3 2 1 2 4 6 5 5 3 5 5 3 2 2 1 3 6 9 11 13 13 13 15 17 17 16 16 15 16 16 16 15 14 14 13 10 9 10 10 10 11 11 11 12 13 15 18 20 19 19 18 16 14 12 12 13 14 14 14 15 16 17 18 18 18 18 18 18 18 17 17 17 17 17 17 17 17 17 18 19 20 20 19 19 20
3 2 1 1 3 3 3 2 4 6 9 11 6 2 2 0 2 6 9 10 11 13 14 15 16 16 15 15 15 13 15 16 15 14 13 10 6 4 5 7 9 10 11 13 15 17 20 20 19 18 19 17 14 12 11 11 11 12 13 14 15 17 18 18 18 18 18 18 18 18 17 17 17 17 17 17 17 17 18 19 20 20 19 19 20 20
3 1 0 1 3 3 3 4 6 9 12 9 2 2 1 1 2 1 6 9 9 9 11 12 14 15 15 15 15 13 13 15 14 11 6 3 2 3 5 7 10 12 15 20 24 25 26 23 17 15 15 11 9 9 8 9 10 11 13 14 15 17 18 18 18 18 18 19 19 18 18 17 17 17 18 17 18 19 20 20 20 20 19 19 20 21
3 2 1 0 2 1 3 5 5 7 8 4 2 2 2 3 4 4 1 9 8 5 7 8 10 14 15 15 15 13 11 12 14 11 5 2 4 5 7 12 17 21 23 26 26 27 26 22 16 13 11 6 5 6 6 7 10 12 14 15 16 17 18 17 18 19 19 19 18 17 17 17 18 18 18 18 19 20 20 20 20 19 19 20 21 22
2 3 0 1 3 2 3 4 3 5 6 3 3 4 4 5 4 4 2 8 4 5 6 8 11 14 15 14 15 12 10 11 13 11 8 8 9 11 13 17 21 25 26 26 26 25 20 16 13 10 7 6 6 7 8 9 12 13 15 16 17 17 18 18 19 19 19 18 17 17 17 17 18 18 18 19 20 20 20 19 20 20 21 21 22 23
3 3 2 3 5 4 4 5 4 5 7 4 3 6 5 4 3 2 7 9 4 4 7 9 12 15 14 14 14 11 10 11 11 12 13 14 16 17 18 19 20 23 24 25 26 24 16 12 11 8 6 7 8 9 10 11 13 14 16 17 17 18 18 19 19 19 18 18 17 17 17 17 18 18 19 19 19 19 19 19 20 21 22 22 22 22
3 3 4 5 5 5 5 6 5 5 6 3 3 7 6 3 2 4 8 9 9 11 11 9 11 13 13 13 12 9 10 12 13 15 17 17 17 18 21 23 23 24 25 25 27 25 17 11 9 7 7 8 8 9 10 11 13 14 15 16 17 18 19 19 18 18 17 17 16 17 17 18 18 18 18 19 19 18 19 20 21 22 22 23 22 22
2 2 3 4 4 4 5 5 5 6 3 3 6 5 4 1 4 7 9 9 11 12 11 10 10 10 12 13 12 10 12 15 16 17 17 17 16 16 19 22 23 25 26 27 29 28 20 12 8 7 8 9 9 9 10 11 12 14 14 15 17 18 18 17 17 17 16 16 16 17 17 17 17 17 18 18 18 19 20 21 22 23 23 23 23 23
3 2 2 4 4 3 3 3 4 6 3 6 6 2 2 2 6 10 10 10 11 10 10 9 8 9 11 13 13 13 15 17 17 16 16 17 16 17 19 21 21 23 27 29 28 24 19 15 12 10 10 10 11 11 10 11 12 13 14 16 17 17 16 15 15 16 16 16 17 17 17 18 18 19 19 20 20 20 22 23 23 22 23 23 23 23
3 3 3 3 3 2 3 4 3 3 3 6 5 3 5 7 8 10 10 10 10 8 7 7 8 11 12 13 14 15 15 15 16 17 17 17 16 16 18 21 23 25 28 29 25 22 20 18 15 14 14 14 12 11 10 10 12 13 14 16 16 15 15 15 15 15 16 17 18 18 19 19 19 20 20 20 21 21 22 22 22 22 23 23 23 23
5 5 3 3 3 4 5 7 7 6 5 5 6 8 11 12 11 9 9 9 8 6 6 7 10 13 12 12 14 13 13 15 17 17 17 17 16 16 18 21 23 25 27 27 25 22 21 20 19 19 20 17 13 10 10 10 11 13 15 16 15 14 15 15 15 15 17 18 18 18 19 18 19 19 20 20 21 21 21 22 22 22 23 22 22 22
6 5 3 1 3 5 7 8 9 10 9 7 7 9 11 12 10 7 7 7 6 6 7 8 10 11 11 12 13 12 14 16 17 17 17 16 15 16 19 21 23 24 26 25 23 22 22 22 21 20 18 14 11 9 10 11 12 13 15 15 15 15 15 15 15 16 18 19 19 19 19 19 19 20 21 21 21 21 21 21 21 22 22 22 22 22
3 1 1 2 4 5 5 5 6 9 11 11 11 11 10 9 6 5 6 6 6 7 8 9 10 11 11 12 13 14 15 16 16 16 15 14 14 15 17 20 23 23 23 23 23 23 24 23 22 18 15 12 10 10 11 12 13 13 14 14 14 15 15 15 15 16 18 19 19 19 19 19 20 20 20 20 20 19 20 20 21 21 22 22 22 22
0 3 1 6 6 6 9 11 11 11 10 10 10 9 7 7 8 9 8 6 7 8 9 9 10 10 10 11 13 14 15 15 15 14 13 13 13 14 17 21 23 22 22 24 26 25 24 22 20 16 13 12 11 12 12 12 13 14 14 14 14 14 14 15 16 17 18 19 19 19 19 18 19 19 19 19 19 19 20 21 21 21 23 23 23 23
2 1 4 6 6 7 9 10 11 10 9 8 8 8 7 8 11 11 9 7 8 9 9 9 10 9 10 11 12 13 14 14 13 14 14 13 12 14 20 23 21 20 23 27 27 24 22 21 18 15 13 13 13 13 13 13 14 14 14 14 14 13 14 15 16 17 18 18 18 19 19 19 19 19 19 20 20 20 21 21 21 22 25 26 26 25
2 4 6 5 6 7 7 7 8 9 9 9 9 10 11 11 10 9 8 9 10 8 8 9 10 9 9 10 11 13 12 12 13 16 15 13 16 22 24 20 19 21 25 27 25 22 20 19 17 15 13 14 14 14 14 14 14 14 13 13 14 13 14 15 16 16 17 18 18 18 18 18 18 18 18 19 19 20 20 21 21 22 24 26 27 26
4 7 5 3 6 8 8 9 7 7 9 11 11 13 12 8 7 7 9 9 7 7 7 8 10 10 9 11 15 16 12 12 17 19 14 15 23 28 23 18 20 23 26 25 23 20 19 17 15 14 13 14 15 15 14 15 15 15 14 14 14 14 15 16 16 16 17 17 17 17 17 17 17 17 17 18 18 19 20 21 22 23 23 24 25 25
Wind_Direction
55 62 39 26 12 358 353 355 343 307 282 283 297 311 319 2 360 342 17 82 54 23 27 83 84 73 67 53 51 54 64 76 76 80 81 84 88 90 94 96 97 95 97 92 82 77 75 74 73 70 68 63 60 59 56 54 54 55 52 45 42 33 24 27 30 27 20 14 9 9 6 355 351 348 335 329 327 325 335 342 331 335 343 347 355 356
59 60 36 15 2 322 333 357 348 309 256 289 17 7 344 26 340 315 7 86 49 62 76 92 85 68 68 60 55 55 59 68 73 85 89 94 97 99 104 105 108 109 108 101 91 83 80 78 77 74 70 65 60 59 58 55 51 52 54 49 41 33 21 20 25 25 21 15 5 3 360 347 338 336 326 317 321 322 327 333 323 329 342 346 354 356
57 51 11 354 327 294 1 9 351 336 5 63 43 18 338 10 331 308 42 352 348 357 90 96 89 79 80 73 66 67 70 69 67 77 84 96 104 109 115 117 122 123 118 109 102 97 90 84 83 81 78 74 65 59 60 61 52 44 47 47 39 30 19 16 18 19 18 12 2 359 357 350 336 328 319 307 310 316 318 322 323 332 343 345 354 353
59 25 350 325 313 357 35 14 357 359 43 72 46 21 335 354 345 316 335 326 328 334 359 101 99 104 101 90 82 83 89 88 79 82 83 86 95 100 108 119 129 129 128 124 119 116 110 103 99 94 93 93 85 60 51 57 55 41 38 37 33 27 18 13 12 13 12 7 359 355 354 350 339 328 317 305 301 305 313 318 324 336 344 340 347 344
51 6 340 329 14 36 40 18 8 6 23 71 53 29 343 342 339 309 312 314 321 19 38 107 111 117 108 99 98 106 111 101 95 100 100 104 108 107 103 104 116 127 137 141 140 141 138 133 125 117 116 114 109 76 31 42 46 38 31 28 25 22 15 9 8 7 6 4 357 352 351 347 340 331 316 311 308 308 318 320 324 336 341 335 339 334
34 2 342 1 45 43 43 28 14 360 335 34 40 16 346 336 326 307 317 322 321 55 4 46 98 120 102 101 114 138 132 112 113 117 118 134 137 142 147 141 143 148 151 160 163 166 166 161 154 143 142 143 141 163 3 25 32 29 25 21 20 17 11 4 2 2 360 359 353 347 347 339 332 326 312 312 313 312 319 318 320 331 336 332 333 328
13 357 354 18 45 40 40 38 18 5 345 335 1 354 333 323 315 308 327 336 315 73 27 44 70 168 139 123 151 159 143 131 135 128 131 154 163 174 177 169 173 172 171 183 187 192 192 184 178 179 186 187 177 199 357 15 19 23 19 16 14 8 4 357 353 355 354 351 346 341 336 322 315 312 303 303 307 309 311 309 317 326 327 327 327 323
358 2 12 19 35 37 28 25 9 358 351 326 331 332 320 312 304 308 320 296 278 90 90 55 50 309 225 154 184 184 152 149 161 151 158 185 199 205 199 191 191 187 189 196 202 207 206 201 196 198 207 212 202 181 9 355 2 14 14 13 5 350 347 346 342 344 346 342 337 332 321 306 303 302 299 300 302 305 304 305 315 321 321 323 320 318
353 20 23 16 25 31 4 342 332 336 343 309 313 311 293 281 271 285 297 263 269 82 100 19 32 358 258 148 181 204 163 174 200 186 192 208 211 221 221 212 209 207 210 215 221 218 211 207 205 208 221 237 248 275 298 311 339 356 2 4 348 323 313 325 331 330 334 335 328 321 308 297 299 296 295 297 298 300 300 305 315 316 318 320 317 315
41 46 40 30 26 6 324 303 295 321 315 290 305 304 278 242 231 253 267 262 280 81 340 5 32 7 276 165 165 190 186 221 249 213 199 206 216 224 225 222 217 211 220 231 234 231 219 213 217 225 237 249 258 265 269 281 291 302 318 313 309 301 283 299 320 319 321 327 319 308 294 290 295 295 293 292 291 295 296 303 314 315 316 318 316 315
152 125 55 41 23 338 314 296 246 226 275 292 311 316 309 192 192 228 237 266 323 19 47 24 18 5 307 195 191 200 183 201 250 251 215 204 218 226 222 222 219 215 223 231 235 234 226 224 229 235 242 245 250 255 254 251 240 242 258 261 270 283 275 284 305 311 312 316 310 297 284 285 290 290 291 289 286 290 292 296 308 313 313 313 312 312
106 101 154 54 21 352 330 330 9 230 281 326 335 339 354 15 299 286 271 8 4 299 11 26 359 337 260 229 208 196 185 192 223 249 243 221 218 223 222 220 218 222 230 228 227 224 219 224 229 232 238 239 242 245 239 231 227 228 232 241 251 262 272 277 288 301 304 304 301 289 280 282 283 283 284 284 284 285 286 288 298 308 309 309 308 309
67 50 61 167 31 10 356 356 6 348 348 359 356 3 8 1 359 349 337 7 334 282 339 15 5 310 246 231 179 185 199 207 214 230 246 246 231 224 220 220 220 223 231 228 222 219 217 222 227 230 234 235 236 236 230 226 225 221 221 232 245 255 270 277 281 291 293 290 289 282 281 282 278 279 280 281 282 280 279 281 292 303 305 305 305 306
258 38 22 15 7 8 14 28 11 345 346 356 359 6 15 37 7 326 314 332 280 287 315 337 34 348 271 246 186 193 198 198 205 216 234 247 242 236 228 225 228 227 229 227 219 221 222 225 229 231 233 234 234 231 227 226 225 219 220 230 246 259 272 279 279 281 281 281 279 275 279 281 276 277 277 278 280 278 276 276 285 298 300 299 300 301
360 49 8 7 320 337 14 41 349 274 290 327 343 7 44 74 31 271 312 314 279 295 301 305 83 223 276 234 192 196 181 181 203 216 225 236 236 241 239 232 233 231 229 226 222 226 229 230 232 233 234 234 233 230 227 227 226 224 225 233 249 261 269 277 278 276 273 273 270 268 274 278 274 272 272 274 278 276 274 274 283 292 295 294 295 297
80 117 91 36 4 345 8 360 321 295 252 296 344 31 53 45 279 250 267 263 267 293 291 284 240 241 260 191 184 182 178 191 212 221 225 235 234 232 235 236 236 235 231 225 225 230 233 233 232 233 235 235 233 230 229 228 227 225 227 236 251 260 263 272 277 272 266 265 264 263 269 273 269 267 271 274 273 273 273 276 282 288 290 291 292 295
123 136 182 169 33 360 314 313 336 359 210 271 347 14 260 251 162 253 274 272 279 289 287 309 291 286 326 257 197 181 216 221 218 224 226 232 233 228 232 237 236 236 234 229 227 229 230 231 230 232 234 234 232 230 231 230 226 225 230 241 249 252 257 265 271 269 263 260 260 261 264 266 265 266 270 272 271 272 274 275 278 282 286 288 290 292
131 219 206 220 246 206 190 305 334 332 325 114 4 305 282 296 102 192 276 300 303 283 269 285 291 298 314 293 231 207 237 236 222 224 229 230 230 229 234 237 236 236 235 232 232 230 228 226 227 231 233 234 232 230 231 229 226 227 234 242 243 246 252 257 263 268 262 256 256 259 260 259 260 265 267 268 270 271 272 273 275 280 283 285 287 291
360 278 230 251 234 173 141 73 333 292 292 130 169 293 8 87 91 253 273 295 300 292 273 255 290 294 264 243 237 227 232 235 231 227 230 232 230 231 238 240 239 239 235 234 235 235 232 227 226 229 232 234 232 229 229 227 226 229 234 239 240 245 253 254 257 262 258 253 255 256 256 256 259 264 265 266 269 270 271 272 274 278 281 283 285 287
334 155 228 263 234 142 150 180 225 259 223 143 174 22 92 166 223 227 285 255 250 286 288 284 303 286 245 215 218 228 224 223 226 226 231 235 232 233 239 243 242 238 234 233 232 234 238 237 235 233 234 235 229 225 225 226 227 229 231 235 238 243 251 252 251 254 254 253 253 252 253 256 260 263 264 267 269 269 269 270 274 278 279 282 283 284
327 199 233 281 342 77 185 210 163 162 148 30 326 351 268 267 236 197 236 162 200 253 276 293 291 271 254 216 214 228 219 211 213 219 231 238 238 240 242 244 244 238 232 231 228 231 236 239 238 235 236 235 225 219 222 224 225 228 228 231 236 241 247 250 250 251 252 251 249 249 252 255 259 262 264 267 267 266 267 270 274 277 277 278 280 283
351 281 293 281 257 243 190 137 76 111 114 24 309 219 203 233 72 276 276 229 175 231 229 269 286 279 270 212 206 219 202 202 212 218 235 243 243 247 248 247 243 236 233 230 228 230 233 236 236 232 230 224 212 211 218 222 225 228 229 232 237 240 243 249 251 249 248 247 246 248 251 254 257 260 262 265 264 264 267 271 273 274 275 276 279 283
12 291 291 275 267 51 84 69 52 54 51 306 251 204 166 178 156 202 261 300 310 284 273 259 266 276 270 188 194 205 192 207 218 220 240 249 246 249 251 247 238 230 231 230 229 232 234 238 242 236 218 202 201 208 217 224 228 229 230 232 234 237 243 250 251 247 244 244 246 248 250 251 254 257 260 260 261 263 265 268 269 270 272 275 278 282
9 259 278 272 268 64 64 53 52 48 24 285 237 206 182 188 144 164 252 35 342 272 270 263 255 267 272 213 208 210 207 228 231 231 246 252 252 251 245 240 236 233 234 234 236 241 243 246 252 251 226 202 202 208 213 220 225 226 231 233 233 237 244 249 248 245 243 244 247 247 247 250 253 255 257 257 259 261 262 263 266 267 270 274 276 279
12 258 301 298 299 319 317 342 351 290 267 262 239 191 160 137 92 55 16 97 235 236 220 234 262 263 264 240 259 256 245 250 248 245 247 248 251 251 243 244 243 241 243 245 247 251 251 251 253 253 241 219 212 215 219 221 218 221 230 233 234 238 243 246 245 243 243 244 246 246 246 249 252 253 255 255 257 258 259 262 265 266 268 271 274 277
298 289 304 304 296 299 298 297 304 296 264 250 228 173 152 145 138 128 290 224 245 229 205 217 262 274 283 277 257 251 246 252 258 256 252 253 262 265 264 274 274 268 270 269 264 259 256 255 253 255 254 239 224 222 227 226 216 216 227 232 236 239 240 244 244 242 243 244 244 246 246 248 250 251 253 254 255 257 259 262 262 264 267 270 273 274
282 277 272 263 247 254 280 282 294 319 296 278 268 219 176 166 170 163 160 225 242 254 238 235 250 276 289 289 279 271 264 267 274 278 279 281 285 285 288 293 287 280 277 277 276 271 267 266 263 263 266 265 251 234 229 228 217 213 222 232 237 239 240 244 243 241 242 244 245 246 246 248 250 251 253 253 254 255 257 260 261 264 268 269 270 272
295 275 292 333 258 250 273 283 288 297 278 272 275 256 210 176 173 175 206 232 256 335 277 258 255 272 285 291 294 294 291 292 294 293 292 293 289 283 283 279 274 270 268 271 275 275 274 273 268 268 270 275 275 257 238 230 219 212 220 232 238 240 243 244 243 241 242 243 244 245 246 250 251 251 251 251 252 255 258 260 261 263 266 268 270 273
305 268 151 41 274 270 273 274 273 273 265 263 266 263 248 211 188 195 222 238 242 248 260 271 282 281 282 287 290 292 295 294 292 288 286 288 284 275 271 273 278 286 290 289 290 289 288 284 277 276 279 282 281 270 249 234 220 212 220 232 238 241 243 244 242 241 242 242 243 245 247 250 251 250 250 251 254 258 259 259 261 264 267 269 270 273
145 254 180 274 288 289 280 269 261 255 259 263 262 259 256 245 227 222 234 241 237 239 253 269 279 278 276 279 283 286 288 285 284 283 279 277 276 273 274 280 289 296 298 298 298 295 292 290 286 284 286 286 282 275 264 249 227 212 219 231 237 241 243 244 242 241 242 243 244 246 248 249 250 251 251 253 257 259 259 260 262 265 267 268 269 274
147 221 96 113 297 293 284 274 256 243 254 268 271 267 260 256 252 246 247 248 243 248 256 262 270 274 275 277 281 282 281 283 289 291 286 282 282 284 286 288 291 293 294 295 296 294 291 290 289 287 285 281 275 272 272 260 235 218 225 235 240 245 247 245 242 242 243 245 246 247 248 250 251 251 252 254 257 257 258 260 261 264 268 270 273 279
151 263 293 81 297 286 293 305 277 274 279 275 274 272 262 254 251 245 242 237 236 250 263 268 270 273 278 287 292 290 287 289 291 291 291 290 289 288 289 293 295 295 295 298 299 297 294 290 286 285 284 282 278 275 271 256 229 219 229 238 244 249 249 244 242 243 244 245 246 247 249 251 251 251 252 253 254 255 257 259 262 266 270 272 276 282
102 266 292 5 275 276 303 323 310 317 313 284 265 255 248 247 252 252 245 235 231 240 261 269 266 272 286 298 299 296 296 294 291 291 293 295 294 292 294 299 302 300 301 306 307 303 299 293 285 278 276 277 275 270 260 240 223 226 234 241 247 249 246 242 241 243 245 247 248 248 250 251 250 249 250 251 253 256 258 260 263 267 270 272 277 281
124 157 251 267 248 278 304 325 328 324 294 262 227 184 211 242 257 262 261 257 253 247 250 261 270 282 293 297 296 296 297 295 296 295 295 299 299 295 297 301 304 307 311 311 309 306 300 295 289 283 278 273 266 258 250 238 231 234 241 245 248 247 243 242 242 244 246 247 247 249 249 249 249 249 250 252 255 258 258 260 263 267 271 274 278 281
158 187 235 226 225 277 304 330 324 266 240 268 278 143 147 252 255 259 260 257 261 263 265 271 279 286 289 290 292 293 294 297 300 299 298 300 299 299 305 310 312 313 311 303 298 293 287 286 285 285 285 277 261 248 244 238 230 230 237 243 245 244 243 243 244 246 247 247 248 248 248 248 249 249 250 254 256 256 257 259 264 270 274 276 279 281
169 199 274 241 228 269 295 280 264 272 291 303 307 100 99 211 251 282 279 260 249 258 270 277 281 283 286 291 293 294 299 303 300 298 302 305 309 309 298 296 301 299 294 295 296 293 291 287 282 282 287 281 259 239 232 230 226 227 236 242 243 243 243 243 244 244 246 247 247 247 248 249 249 249 252 255 254 254 257 261 267 273 276 278 280 282
170 163 45 225 224 245 261 250 263 289 300 299 269 134 121 188 160 318 296 285 273 263 264 270 278 287 292 295 299 302 307 305 298 300 309 289 249 262 265 280 298 301 302 306 305 303 302 297 285 282 290 283 250 227 219 223 229 235 241 243 242 243 242 240 242 244 246 248 249 249 250 249 248 250 253 253 253 256 260 263 269 275 278 279 281 281
187 210 104 190 233 256 288 287 297 298 293 279 204 192 102 93 106 118 258 295 294 258 246 264 286 298 301 303 304 306 310 304 298 305 323 271 265 300 311 314 318 316 314 313 308 306 307 301 288 281 282 267 228 219 224 236 240 239 241 241 240 241 241 240 243 246 249 251 251 251 251 249 250 252 254 254 255 258 261 265 270 275 278 280 281 282
232 269 350 249 269 290 285 277 269 264 277 279 206 183 119 105 122 118 322 302 271 198 239 292 309 310 311 310 308 310 314 304 295 305 324 319 317 329 329 324 323 320 317 316 314 314 314 307 296 283 261 226 219 233 244 249 245 240 240 241 241 241 240 241 245 249 252 253 252 253 253 252 253 255 255 256 257 258 262 267 271 275 279 281 281 282
226 242 195 217 246 241 232 256 255 244 265 271 173 148 127 135 135 48 322 306 292 268 294 319 322 317 317 316 314 313 307 298 296 309 325 329 328 329 328 325 324 322 320 321 322 323 324 317 303 286 243 222 232 245 251 247 241 238 240 242 241 240 241 243 249 254 256 256 256 256 256 256 257 258 258 258 259 261 263 268 272 276 280 281 280 280
198 204 203 218 246 239 228 253 265 252 264 281 128 132 137 138 66 335 302 303 319 319 319 328 320 316 318 317 313 307 298 300 308 315 324 328 326 325 326 326 325 325 326 328 327 325 322 317 304 279 251 243 246 253 255 248 241 240 243 243 241 241 244 249 255 259 258 256 256 257 259 260 260 261 260 259 260 261 263 269 275 279 280 281 280 279
188 191 204 210 237 240 227 248 277 279 283 89 107 132 145 118 320 297 289 306 318 315 316 319 314 317 320 314 309 307 307 312 317 318 323 326 325 325 329 330 330 330 330 329 328 325 323 321 317 295 274 266 261 258 258 252 247 247 248 247 246 248 252 256 260 260 257 255 257 259 261 261 260 259 260 261 260 260 265 273 278 280 280 280 278 278
177 178 221 211 211 226 229 238 278 288 277 119 113 118 157 192 283 292 299 310 311 309 312 313 315 325 324 316 314 316 317 318 320 323 325 326 327 330 332 334 336 335 333 330 330 334 339 340 335 321 299 285 274 267 264 261 259 256 253 252 254 257 259 261 262 261 257 257 258 259 259 259 260 260 261 262 262 264 270 277 280 280 280 279 277 277
173 175 233 232 184 177 225 226 220 245 215 159 155 258 246 234 265 291 301 303 306 313 319 320 327 332 329 323 320 321 322 323 325 328 329 328 330 333 335 337 339 338 336 332 329 334 337 332 328 325 316 302 286 278 279 275 269 264 260 261 264 264 263 265 266 262 259 258 258 260 262 264 265 265 264 264 266 268 272 276 279 279 279 278 276 275
198 186 205 234 218 220 249 261 271 285 268 208 209 254 268 269 277 285 287 293 306 324 339 339 331 329 331 330 327 327 329 329 328 328 329 329 332 335 336 337 337 336 333 328 325 327 329 325 323 322 317 308 295 289 295 290 278 271 268 269 271 269 267 270 270 264 260 260 261 265 269 269 268 268 267 268 269 269 271 274 276 277 278 278 275 271
220 194 154 167 276 279 264 255 264 279 281 265 250 256 267 276 286 293 297 307 323 340 350 343 331 333 343 345 339 334 331 329 327 327 330 332 332 333 334 332 331 331 331 328 327 331 333 329 324 320 316 312 306 302 304 300 290 282 278 275 274 273 274 275 271 266 264 264 266 269 271 270 269 269 270 271 271 270 270 273 273 273 274 274 271 267
239 143 133 234 280 305 284 258 266 279 285 288 286 283 284 291 310 336 335 331 339 347 350 348 344 348 354 352 342 332 327 329 330 328 332 333 329 328 331 328 325 328 333 334 334 335 334 330 325 323 322 324 328 328 318 305 295 290 287 281 278 278 278 274 268 265 266 267 270 272 272 271 271 271 272 272 272 270 270 271 270 269 268 268 267 265
243 72 311 250 248 260 268 277 287 286 278 278 282 291 308 323 334 342 341 344 353 352 353 3 5 359 352 346 339 331 328 332 333 331 330 328 324 324 326 325 326 332 340 340 334 333 334 331 328 330 334 335 339 336 322 307 297 294 290 285 282 280 276 270 267 267 268 269 271 273 272 272 271 271 271 271 270 268 267 268 267 264 264 266 266 263
94 103 263 267 272 269 268 282 299 300 287 279 287 304 325 334 334 337 348 2 359 351 356 9 11 3 351 343 339 335 332 331 332 330 326 323 324 325 324 326 333 341 343 337 331 331 334 332 330 336 341 340 337 328 316 306 301 298 294 289 284 280 276 272 271 271 271 272 273 273 273 272 271 270 270 271 270 269 268 268 268 267 269 273 273 269
107 252 263 284 290 280 280 299 319 319 305 298 309 323 333 342 346 352 1 359 353 358 6 358 351 352 350 345 344 339 330 327 331 329 326 330 332 327 325 333 345 346 341 335 331 331 334 333 333 337 340 338 332 323 313 307 304 302 300 294 288 283 281 279 276 273 273 274 275 274 274 273 271 271 271 271 270 269 270 273 272 270 272 278 281 280
205 243 247 257 265 272 289 303 313 308 295 299 318 328 335 355 13 7 356 351 355 15 14 351 339 340 339 344 348 342 330 330 337 336 334 336 332 328 332 349 353 345 339 336 335 335 338 340 341 341 340 336 329 322 313 308 306 307 305 301 295 290 286 283 279 275 275 276 276 276 276 273 271 272 272 270 269 269 271 276 279 278 277 278 281 283
Height
806 819 830 833 834 832 828 826 824 823 823 823 822 822 820 820 822 818 818 818 816 821 825 833 846 851 856 857 855 855 855 860 865 868 872 874 876 878 879 880 880 881 882 882 882 881 881 880 880 879 878 877 876 875 875 873 873 873 873 872 872 872 871 870 869 869 868 868 867 866 866 866 865 865 864 863 862 860 859 858 857 856 855 854 853 852
812 828 837 833 832 831 828 825 824 822 819 820 823 826 824 825 828 820 817 817 814 821 828 836 849 856 860 862 861 861 862 865 868 869 873 874 876 878 878 880 880 880 881 881 881 881 881 879 879 878 877 876 875 874 874 873 873 872 872 872 871 871 870 869 868 868 868 867 867 866 865 865 864 863 862 861 860 859 858 858 856 855 854 853 852 852
824 835 835 830 829 828 826 826 827 822 818 822 827 830 830 829 830 822 816 817 816 821 824 833 853 862 865 866 865 866 867 869 870 871 873 874 876 877 877 879 878 879 880 880 880 879 879 878 877 877 876 875 874 873 873 872 872 871 871 870 870 870 869 868 867 867 867 866 866 865 864 863 862 862 861 860 859 859 857 856 855 854 853 852 851 851
837 838 832 828 826 825 828 831 831 826 823 828 831 833 835 832 834 832 825 820 819 821 820 831 855 864 865 867 868 868 869 872 872 873 874 874 875 876 876 877 877 878 878 878 879 878 878 877 876 875 874 874 873 872 871 871 870 870 869 869 868 868 867 867 866 865 865 864 864 863 863 862 861 860 860 859 858 858 856 855 855 854 853 852 851 850
841 839 830 826 826 828 833 835 835 834 830 830 832 836 838 835 837 837 830 823 820 821 818 827 849 860 862 866 869 869 869 871 873 873 875 875 875 876 876 877 877 877 877 877 877 876 876 875 875 874 873 873 872 871 870 869 869 868 868 867 867 867 866 865 865 864 864 863 863 862 861 861 860 859 858 858 857 856 855 855 854 853 852 852 851 850
841 840 833 829 830 832 837 838 839 840 836 831 831 836 836 835 837 835 831 827 824 825 821 822 838 854 862 865 866 867 867 870 873 872 874 874 874 875 875 876 877 876 876 876 876 875 875 874 873 873 872 871 871 870 869 868 867 867 867 866 866 865 865 865 864 863 863 862 862 861 860 860 859 858 858 857 856 855 855 854 853 852 852 851 850 850
845 842 837 835 835 836 839 841 841 844 843 836 832 834 834 834 836 833 832 834 830 827 823 820 830 848 861 867 865 864 866 868 870 871 872 872 872 873 873 874 875 875 875 875 874 874 873 872 872 871 870 869 869 868 867 867 866 866 865 865 865 865 864 864 863 863 862 861 861 860 860 859 859 858 857 856 855 854 854 853 852 851 851 850 850 849
849 847 844 840 840 842 845 846 843 844 847 840 832 834 835 834 835 833 834 837 829 824 824 823 826 836 849 862 863 860 864 866 867 870 871 872 872 871 871 871 872 872 873 873 872 871 870 870 869 868 868 867 867 866 866 866 865 865 864 864 864 864 863 863 862 862 861 861 860 859 859 859 858 857 856 856 854 854 853 852 851 851 850 849 849 848
852 851 852 848 847 849 850 849 845 844 847 840 833 834 833 832 834 832 834 834 823 822 829 825 827 836 843 855 861 858 861 864 864 867 869 870 871 870 870 870 870 870 871 871 870 869 868 867 867 867 867 866 866 865 864 864 864 863 863 863 863 863 862 861 861 860 860 859 858 858 858 857 856 856 855 854 853 853 852 851 850 850 849 848 848 847
852 853 853 851 854 854 851 847 843 845 846 839 833 830 825 827 831 832 836 833 820 823 834 830 831 843 847 852 859 858 860 864 862 863 865 867 868 868 868 868 868 869 869 869 868 867 867 867 867 867 866 865 864 863 863 862 862 861 861 861 861 861 860 860 859 859 858 857 857 856 856 855 855 854 853 853 852 851 851 850 849 848 848 847 846 846
852 852 851 852 856 853 848 843 839 843 844 837 834 829 823 825 830 834 833 827 823 828 836 833 830 840 848 851 858 859 860 863 864 862 861 863 865 865 866 866 867 867 867 867 866 866 866 866 866 865 864 863 862 861 861 860 860 860 859 860 860 859 859 858 857 857 856 855 855 854 854 853 853 852 852 851 850 850 849 848 848 847 847 846 845 845
851 852 853 854 855 851 847 842 839 842 842 840 838 833 830 829 829 833 826 825 835 837 833 831 830 839 846 846 853 860 861 864 865 863 860 859 861 862 863 863 864 865 865 864 864 864 864 864 863 863 862 861 860 860 859 858 858 857 857 858 858 858 857 856 856 855 854 853 853 852 852 851 851 850 850 849 848 848 847 846 846 845 845 844 844 843
854 856 856 853 853 852 850 848 847 845 842 844 843 841 845 844 845 849 839 835 842 837 830 830 834 842 839 836 848 858 860 862 861 860 859 857 858 859 860 861 861 862 862 861 861 861 861 861 860 860 859 858 858 858 857 857 856 855 855 855 856 856 855 855 854 853 852 852 851 850 850 850 849 848 848 847 846 846 845 844 844 843 843 842 842 841
855 858 856 854 854 854 855 859 862 858 852 852 848 849 858 863 871 872 855 849 851 842 833 829 838 847 836 834 849 853 853 857 857 858 858 856 856 856 857 858 858 858 858 858 858 858 857 857 857 857 856 856 855 855 855 855 855 853 852 853 854 853 853 853 851 851 850 849 849 849 848 848 847 846 846 845 844 844 843 842 842 842 841 841 840 839
853 857 860 860 860 859 859 862 866 865 861 856 849 850 858 867 880 878 864 864 865 854 842 835 841 843 832 835 848 849 849 853 854 856 856 855 855 855 855 855 855 855 854 855 854 854 854 853 854 854 854 853 853 853 853 853 853 852 850 850 851 851 850 850 849 849 848 847 847 846 846 846 845 844 844 843 842 842 841 840 840 840 839 839 838 837
853 857 862 862 861 861 862 861 860 860 859 853 847 853 863 867 873 872 865 863 863 859 850 838 833 829 833 847 851 849 852 853 853 854 854 854 853 853 854 852 851 851 850 851 850 850 850 850 851 851 851 851 850 851 851 850 851 849 848 848 848 848 848 847 847 846 846 845 845 844 844 843 843 842 841 841 840 840 839 839 838 838 837 837 836 836
856 859 862 862 861 861 862 862 859 858 858 854 854 862 866 864 868 872 867 856 855 862 852 836 830 828 834 848 851 852 854 852 854 854 851 852 851 851 852 849 848 847 846 846 845 845 845 846 847 847 847 848 847 848 847 847 847 846 845 845 846 846 845 845 844 844 843 843 842 842 842 841 841 840 839 839 838 838 837 837 836 835 835 835 834 834
864 863 860 860 862 860 860 862 860 859 859 859 862 864 861 861 866 871 870 862 862 869 854 837 838 838 835 841 850 856 855 850 850 850 849 849 849 849 847 844 844 842 842 842 841 841 841 842 843 843 844 844 844 844 844 844 844 843 842 843 843 843 843 842 842 841 841 840 840 840 839 839 838 838 837 836 836 835 835 834 834 833 833 833 832 832
867 865 860 858 858 858 861 864 863 861 857 858 862 861 861 869 870 866 869 871 874 877 862 843 841 841 835 833 838 844 845 845 845 845 845 844 844 844 842 840 839 838 838 839 838 838 838 838 839 839 840 840 839 840 840 841 841 839 839 840 840 840 840 840 839 838 838 838 837 837 837 836 836 835 835 834 834 833 833 832 832 831 831 831 830 830
868 866 862 857 855 857 859 861 862 863 859 857 860 860 863 870 869 866 869 872 875 878 870 857 851 844 829 819 819 824 830 837 840 840 839 837 837 837 836 835 835 834 835 835 834 835 834 834 834 834 834 834 833 835 836 837 838 836 836 837 837 838 837 837 837 836 836 835 835 835 834 834 834 833 833 832 831 831 830 830 830 829 829 828 828 828
869 864 860 857 858 858 857 858 859 862 864 864 864 867 870 869 866 867 869 868 870 876 876 872 864 842 820 814 816 817 821 829 833 834 832 832 831 831 831 831 830 830 830 830 831 831 830 830 828 827 828 828 829 831 832 834 834 833 833 834 834 835 835 834 834 833 833 832 832 832 832 831 831 831 830 830 829 829 828 828 827 827 827 826 826 826
875 869 864 859 856 854 857 861 861 863 867 869 869 869 871 872 872 876 875 868 867 871 872 876 871 842 817 815 816 816 821 826 828 829 828 829 829 828 827 826 825 826 826 826 826 825 825 824 822 822 822 823 825 826 828 830 831 831 831 831 831 831 831 831 831 830 830 830 830 829 829 829 828 828 828 827 827 826 826 826 825 825 825 824 824 823
884 880 872 860 854 858 863 865 866 867 867 869 871 869 869 872 875 879 879 874 875 873 867 873 872 841 814 816 818 817 822 824 824 827 827 826 826 824 823 821 821 822 822 822 821 820 819 817 817 818 817 818 820 821 824 826 827 828 828 828 829 828 828 828 828 828 827 827 827 826 826 826 826 826 826 825 825 824 824 824 823 823 823 822 822 821
886 880 873 861 856 865 871 868 869 871 870 871 870 867 869 872 873 877 881 885 888 881 871 877 871 836 813 819 822 820 823 823 824 825 823 822 821 819 818 817 816 817 816 816 815 814 814 813 813 813 813 814 815 816 818 820 822 824 825 825 825 825 825 825 825 825 824 824 824 824 824 823 823 823 823 823 822 822 822 822 821 821 821 820 820 819
883 872 870 865 858 861 864 865 868 871 872 872 865 863 867 872 879 885 885 890 893 881 872 879 866 829 815 823 824 823 824 823 822 821 819 819 816 814 813 812 812 812 811 811 810 809 809 808 808 809 809 809 810 811 812 814 816 818 820 822 822 822 822 822 822 822 821 821 821 821 821 821 821 821 820 820 820 820 820 819 819 819 818 818 818 817
886 873 871 872 869 866 862 861 863 863 865 863 857 859 867 873 880 882 882 891 891 874 867 870 852 821 814 822 823 823 824 822 819 817 814 813 810 808 808 808 808 809 808 808 807 806 805 804 804 804 804 805 805 806 807 808 810 812 815 818 819 819 819 819 819 819 819 819 819 818 818 818 818 818 818 818 818 817 817 817 817 817 816 816 816 815
886 876 871 871 871 870 866 862 860 859 861 859 854 856 866 874 878 879 885 887 877 865 860 853 840 827 818 816 816 817 817 816 813 809 807 807 806 805 806 806 807 806 805 804 803 802 802 801 800 800 800 801 801 802 803 803 805 807 810 814 816 816 816 816 816 816 816 816 816 816 816 815 816 816 815 815 815 815 815 815 814 814 814 814 813 813
884 876 876 876 871 869 868 865 862 863 863 859 855 854 860 870 878 882 883 873 863 866 858 835 830 833 821 811 811 811 810 809 807 805 804 803 803 804 804 804 803 802 801 799 799 798 797 796 796 796 796 797 798 798 799 800 801 803 806 810 812 813 813 813 813 813 813 813 813 813 813 813 813 813 813 813 813 813 813 812 812 812 811 811 811 810
885 879 882 884 876 871 872 868 864 864 861 856 853 852 853 860 871 876 874 865 864 870 854 830 830 834 821 812 811 809 808 807 804 802 802 801 802 802 801 801 800 798 797 796 795 795 794 793 793 793 793 793 794 795 796 797 797 799 803 806 809 810 810 810 810 810 810 810 810 810 810 810 810 810 810 810 810 810 810 810 810 809 809 809 808 807
886 880 885 888 880 873 869 864 859 860 859 854 850 849 848 850 855 860 861 859 861 862 849 838 839 833 819 813 810 807 806 804 800 800 800 800 800 799 799 798 796 795 794 793 792 792 791 791 790 790 790 790 791 792 793 794 795 796 799 803 805 806 807 807 807 807 807 807 807 807 807 807 807 807 808 807 807 808 807 807 807 806 806 806 805 804
885 881 883 887 883 871 858 853 853 853 854 852 846 843 843 844 845 848 848 848 851 850 843 840 842 830 814 808 806 804 802 800 799 798 797 796 796 796 795 795 793 792 791 790 789 789 788 788 787 787 787 787 789 790 790 791 793 794 797 799 802 803 803 804 804 804 804 804 804 804 804 804 804 804 805 805 805 805 805 804 804 804 803 803 802 801
885 884 882 884 884 869 852 849 851 849 851 851 845 840 839 840 840 839 838 839 842 841 838 839 839 824 807 803 802 800 798 798 797 796 794 793 793 793 792 791 790 789 788 787 787 786 786 785 785 785 785 785 786 787 788 789 790 791 794 796 798 799 800 801 801 801 801 801 801 801 801 801 802 802 802 802 802 802 802 802 801 801 801 800 799 798
889 888 883 883 882 868 853 852 854 856 857 847 835 831 831 832 834 832 832 832 832 834 837 836 827 812 802 803 802 797 796 796 795 794 793 791 790 790 790 789 788 787 787 787 786 785 785 783 782 782 781 782 783 783 784 785 787 789 791 793 795 796 797 798 798 798 798 798 798 798 798 799 799 799 799 799 799 799 799 799 798 798 798 797 796 796
894 893 886 881 880 871 859 858 862 865 857 836 821 823 826 827 831 831 831 829 826 826 827 822 812 806 804 804 802 798 795 793 792 791 790 790 790 789 788 787 787 787 787 786 785 785 784 782 780 779 778 778 778 779 781 782 783 786 788 791 792 794 795 795 795 795 795 795 795 795 795 796 796 796 796 796 796 796 796 796 796 795 795 794 793 792
891 891 885 881 882 877 866 865 867 857 838 823 821 828 830 830 832 834 833 830 826 823 820 816 812 809 806 804 802 798 794 790 790 789 788 789 789 788 788 788 788 787 786 785 784 782 780 778 777 776 775 775 775 775 777 779 781 783 786 789 790 791 792 792 792 792 792 792 793 793 793 793 793 793 793 793 794 794 793 793 793 792 792 791 790 789
886 888 884 880 881 876 868 866 859 840 822 818 825 832 835 833 834 836 832 827 825 824 821 818 814 809 806 804 800 797 794 790 788 787 787 788 788 788 789 788 787 787 785 784 782 778 776 774 773 773 773 772 772 773 774 776 779 782 785 787 788 789 790 790 790 790 790 790 790 790 790 790 790 790 791 791 791 791 790 790 790 789 789 788 787 786
883 885 886 883 876 870 870 867 856 842 829 822 823 831 834 831 833 838 835 825 820 821 820 817 814 809 806 802 799 797 795 791 787 785 786 787 787 787 787 786 786 786 783 781 779 776 774 772 770 770 770 770 771 772 773 775 778 781 783 785 786 787 787 788 787 787 788 788 788 788 788 788 788 788 788 788 788 788 787 787 787 786 786 785 784 783
885 883 885 885 874 866 872 873 865 855 837 820 823 834 836 835 837 842 843 831 818 815 815 813 812 808 804 802 799 796 797 795 788 783 784 786 786 786 785 785 784 783 781 780 777 774 772 770 769 768 768 769 770 772 773 775 778 780 782 783 784 784 785 785 785 785 786 785 785 786 785 785 785 785 785 785 785 785 785 784 784 783 783 782 781 780
887 885 885 890 884 876 879 879 871 859 835 818 825 837 838 839 840 842 842 827 811 810 812 809 807 806 803 802 799 797 800 800 790 782 783 785 784 784 784 783 782 782 780 779 776 773 771 769 768 768 767 768 769 771 773 775 777 779 780 780 781 782 782 782 783 783 783 783 783 783 783 783 783 783 783 783 782 782 782 782 781 781 780 780 778 777
891 889 889 893 889 882 882 878 866 851 829 818 827 837 840 841 840 841 837 818 803 806 808 805 805 804 802 801 800 798 800 798 789 782 782 784 784 784 784 783 782 781 779 778 776 774 771 770 769 768 768 768 769 770 772 773 775 777 777 777 779 779 779 780 781 781 781 781 781 781 781 781 780 780 780 780 779 780 780 779 779 778 777 776 775 774
888 888 886 885 881 877 877 872 860 842 824 820 830 838 841 841 839 837 827 809 800 802 803 803 805 804 801 802 801 799 797 793 789 785 784 785 785 784 784 784 783 781 779 778 776 774 772 770 769 769 769 769 769 770 771 773 774 774 775 776 776 777 777 778 779 779 780 779 779 779 778 778 778 778 778 778 777 777 777 777 776 775 774 773 772 771
871 874 875 876 876 872 867 864 857 839 824 827 837 841 841 839 832 822 810 801 801 803 801 802 804 802 802 802 799 798 795 791 790 788 786 787 787 785 785 784 783 782 780 779 777 775 773 771 769 769 769 769 770 770 771 772 772 773 774 774 774 775 776 777 777 777 777 777 777 777 776 776 776 776 775 775 775 775 774 774 773 772 772 771 769 768
857 861 862 864 865 862 859 862 857 838 825 830 837 837 839 833 818 807 803 801 802 802 801 801 802 802 803 800 798 797 795 792 792 790 789 789 788 786 786 784 783 783 781 779 778 776 774 773 771 770 770 770 770 770 770 771 771 772 773 773 773 774 775 776 776 775 775 775 775 774 774 774 774 774 773 773 773 772 772 771 771 770 769 768 766 765
854 854 851 847 846 846 849 849 840 826 824 831 829 824 826 821 810 806 806 803 801 801 801 801 801 802 803 801 798 797 796 794 793 792 791 790 788 788 787 786 785 784 782 781 779 776 775 774 772 771 770 770 770 769 769 770 771 771 772 772 773 774 774 774 774 774 773 773 773 772 772 772 772 771 771 771 770 770 769 768 768 767 766 765 764 762
847 846 844 841 837 835 833 829 822 817 822 827 824 818 815 812 808 808 807 803 802 803 803 804 804 803 803 802 800 798 798 797 796 794 793 792 790 789 789 787 786 785 783 782 779 777 776 774 772 771 770 769 769 769 769 770 770 770 771 772 772 773 773 773 773 772 771 771 770 770 770 770 769 769 769 768 768 767 766 766 765 764 763 762 761 760
839 840 843 842 838 833 826 821 820 820 819 819 819 816 812 809 808 807 806 806 806 806 806 807 806 804 804 804 803 802 802 801 799 797 795 794 792 791 789 788 787 785 783 781 779 777 776 774 773 771 769 769 769 769 770 771 771 770 770 771 772 772 771 771 771 770 770 769 768 768 768 767 767 767 766 766 765 764 764 763 762 761 760 759 758 757
839 843 845 842 841 838 828 819 819 821 818 816 814 811 809 809 808 808 808 808 808 808 809 809 808 807 807 808 807 806 805 803 801 799 797 795 793 791 789 788 786 784 782 781 779 778 776 775 773 771 770 770 770 770 771 771 771 770 770 770 770 770 770 769 769 768 768 767 766 766 766 765 765 764 763 763 762 762 761 760 760 759 758 756 755 754
841 847 846 840 839 839 829 819 818 818 816 814 813 810 809 809 808 808 810 810 809 810 810 810 811 811 810 809 809 808 805 804 803 800 798 796 793 791 789 787 785 784 783 782 780 779 777 775 774 772 771 771 771 771 772 771 770 770 770 769 769 769 768 768 767 766 766 765 765 764 764 763 763 762 761 760 760 759 759 758 757 756 755 753 753 752
845 848 841 835 835 834 827 820 817 815 813 811 811 810 810 810 809 809 810 810 811 811 811 812 813 813 813 812 811 809 806 805 803 801 798 796 793 791 789 786 785 784 783 782 781 779 777 776 775 774 773 773 773 772 771 771 770 770 769 769 768 767 766 766 765 764 764 763 762 762 761 761 760 759 759 758 757 756 756 755 754 753 751 750 749 749
846 843 836 835 837 833 825 820 819 818 815 811 809 810 810 810 811 811 811 812 812 812 812 812 812 812 813 813 811 809 807 804 802 800 798 795 794 791 788 786 785 784 783 783 781 779 778 777 776 775 774 774 773 772 771 770 770 769 768 768 767 766 765 764 763 763 762 761 760 760 759 758 757 757 756 755 754 753 753 752 752 751 749 747 746 745
840 835 832 835 834 827 820 819 820 821 817 811 809 810 811 811 812 812 812 813 813 813 813 813 812 811 810 810 809 809 806 803 802 800 798 797 795 792 788 787 786 785 784 783 781 779 778 777 776 776 775 774 773 772 771 770 769 768 768 767 765 765 764 763 762 761 760 759 758 757 757 756 755 754 754 753 752 751 750 749 748 748 746 745 743 742